Location: Brussels - Union - Gardner Fire Department Station 1
(44.7358°N, 87.6198°W)
Time: 01:16:50
(UTC+00:00)

Daily predictions for brighter satellites

Satellite Brightness Start Highest point End
(mag) Time Altitude Azimuth Time Altitude Azimuth Time Altitude Azimuth
CZ-4 R/B 4.4 00:02:17 10° S 00:06:15 80° WSW 00:10:15 10° NNW
MOS 1 Rocket 3.3 00:03:48 10° S 00:08:00 69° WSW 00:12:18 10° NNW
ARIANE 6 FM1 Upper Stage 3.9 00:10:19 10° WSW 00:14:00 35° NW 00:16:28 18° NNE
Cosmos 2016 Rocket 4.3 00:08:40 10° SSW 00:14:51 68° W 00:21:11 10° N
CZ-2D R/B 3.8 00:15:40 10° S 00:19:38 65° W 00:23:44 10° NNW
SPOT 1/Viking Rocket 3.8 00:17:45 10° S 00:22:53 71° WSW 00:28:04 10° NNW
Cosmos 1782 Rocket 3.6 00:19:23 10° SSW 00:23:48 78° W 00:28:16 10° N
Cosmos 1943 Rocket 4.2 00:20:03 10° SSE 00:20:25 11° SSE 00:20:25 11° SSE
Tiangong -1.3 00:21:34 10° W 00:24:28 43° SSW 00:24:28 43° SSW
SKYMED 2 4.4 00:27:02 10° N 00:31:14 51° WNW 00:35:27 10° SSW
COSMO-SKYMED 1 2.7 00:28:12 10° N 00:32:19 67° WNW 00:36:24 10° SSW
SL-4 R/B 2.4 00:30:24 10° NW 00:33:09 44° NNW 00:33:09 44° NNW
Meteor 2-12 Rocket 4.3 00:27:57 10° N 00:34:04 69° E 00:40:07 10° SSE
Cosmos 2061 Rocket 4.2 00:28:02 10° SSW 00:34:23 73° W 00:40:41 10° N
SL-19 R/B 4.3 00:30:10 10° S 00:35:30 71° WSW 00:40:43 10° NNW
Cosmos 1140 Rocket 3.3 00:30:23 10° S 00:35:32 67° ESE 00:36:53 47° NE
Cosmos 1833 Rocket 2.5 00:36:59 10° NNW 00:42:40 77° ENE 00:44:22 47° SE
Cosmos 1975 Rocket 3.2 00:42:00 10° NNW 00:46:18 70° W 00:50:36 10° S
ATLAS 5 CENTAUR R/B 2.9 00:46:58 10° NNW 00:49:25 30° N 00:49:25 30° N
Nadezhda 4 Rocket 4.5 00:46:50 10° N 00:51:30 41° NE 00:51:30 41° NE
Resurs 01 Rocket 3.1 00:58:12 28° N 00:58:12 28° N 01:00:19 10° N
Cosmos 2082 Rocket 4.0 01:22:18 10° NNW 01:24:14 21° N 01:24:14 21° N
ATLAS CENTAUR R/B 4.1 01:27:03 10° W 01:27:55 14° WNW 01:27:55 14° WNW
Cosmos 2278 Rocket 4.4 01:24:30 10° SSW 01:25:11 14° SSW 01:25:11 14° SSW
USA 281 3.7 01:39:32 46° SSW 01:41:04 55° WSW 01:47:31 10° NNW
ATLAS 2AS CENTAUR R/B 4.4 01:37:58 10° NNW 01:41:24 19° N 01:41:24 19° N
CZ-4C R/B 4.2 01:39:50 10° WNW 01:43:14 18° NNW 01:43:35 18° NNW
SL-12 R/B(2) 4.2 01:35:33 10° SW 01:43:27 84° NW 01:44:52 67° NNE
USA 267 4.5 08:38:33 10° NE 08:42:21 36° ENE 08:42:21 36° ENE
Cosmos 2360 Rocket 4.3 09:04:26 20° NNE 09:04:26 20° NNE 09:06:05 10° NNE
Cosmos 2322 Rocket 4.3 09:04:58 19° NNE 09:04:58 19° NNE 09:06:26 10° NNE
ACS3 Solar Sail 3.4 08:57:34 10° NNE 09:00:18 27° NNE 09:00:18 27° NNE
CZ-2C R/B 4.1 09:15:24 10° NNE 09:19:10 32° ENE 09:19:10 32° ENE
USA 234 3.5 09:14:47 10° ESE 09:20:57 62° NE 09:20:57 62° NE
ARGOS 4.3 09:16:11 10° NNE 09:20:39 40° E 09:20:39 40° E
BREEZE-M DEB (TANK) 4.5 09:28:49 67° WNW 09:30:16 88° NNE 09:58:46 10° SE
Cosmos 2219 Rocket 3.1 09:42:02 40° NNE 09:42:02 40° NNE 09:45:34 10° NNE
ADEOS Rocket 3.6 09:41:37 10° N 09:46:25 50° NNW 09:46:25 50° NNW
NOSS 3-1 (C) 3.5 09:49:30 52° E 09:49:30 52° E 09:54:19 10° NE
COSMOS 2428 3.7 09:47:51 25° SSE 09:50:48 45° ESE 09:56:11 10° NE
Cosmos 2322 4.1 09:56:05 39° S 09:57:59 60° ESE 10:03:34 10° NNE
Cosmos 921 Rocket 4.4 10:07:01 32° SSE 10:07:01 32° SSE 10:09:25 10° SSE
USA 59 Rocket 2.0 10:08:02 15° NE 10:08:02 15° NE 10:08:39 10° NE
Cosmos 1459 Rocket 4.5 10:01:13 10° N 10:07:31 60° ENE 10:13:46 10° SSE
BlueWalker 3 3.5 10:09:09 32° E 10:09:09 32° E 10:11:23 10° ESE
Cosmos 1939 Rocket 3.9 10:04:20 10° NNE 10:08:02 42° E 10:08:20 41° ESE
Cosmos 1269 Rocket 4.2 10:10:45 32° N 10:13:12 68° ENE 10:18:27 10° SSE
H-2A R/B 4.3 10:09:54 10° N 10:10:02 11° N 10:10:02 11° N
Cosmos 1727 Rocket 3.8 10:08:16 10° S 10:14:27 84° W 10:20:43 10° N
Cosmos 2278 Rocket 3.1 10:17:17 13° NNW 10:22:12 47° ENE 10:27:38 10° SE
Cosmos 2333 Rocket 4.0 10:27:38 17° NNW 10:27:38 17° NNW 10:29:56 10° N
Cosmos 2237 Rocket 3.7 10:21:17 10° S 10:26:24 36° ESE 10:31:31 10° NE
Cosmos 1802 Rocket 4.4 10:20:30 10° N 10:26:51 64° E 10:33:04 10° SSE
USA 267 3.5 10:21:41 10° NE 10:27:58 51° NNW 10:29:41 41° WNW
NOSS 3-1 (A) 3.7 10:29:28 13° SSW 10:33:24 48° ESE 10:38:35 10° NE
NOSS 2-1 (E) 3.4 10:36:46 51° NNE 10:36:46 51° NNE 10:39:11 10° NE
Cosmos 2173 Rocket 3.8 10:31:05 10° N 10:37:12 78° W 10:43:16 10° S
COSMOS 2455 4.1 10:37:41 23° NNW 10:37:41 23° NNW 10:42:01 10° NNE
Meteor 1-24 Rocket 3.9 10:31:41 10° S 10:37:28 75° E 10:43:04 10° NNE
SJ-11-01 4.5 10:35:35 10° NNE 10:40:17 72° ESE 10:44:58 10° S
Cosmos 44 Rocket 3.3 10:39:36 36° NW 10:41:43 83° WSW 10:46:52 10° SSE
Cosmos 2360 Rocket 3.8 10:46:12 18° NNW 10:46:12 18° NNW 10:49:06 10° N
Cosmos 1908 Rocket 3.5 10:41:07 10° N 10:45:36 88° E 10:49:59 10° S
Cosmos 2322 Rocket 3.9 10:46:47 17° NNW 10:46:47 17° NNW 10:49:20 10° N
ACS3 Solar Sail 3.0 10:41:16 10° N 10:44:27 23° NW 10:44:27 23° NW
Gbstr 26 Del rocket 3.4 10:47:30 42° W 10:49:11 71° NNW 10:55:06 10° ENE
Cosmos 1000 Rocket 4.5 10:42:59 10° SSW 10:49:12 61° W 10:55:30 10° N
Meteor 2-5 Rocket 3.8 10:43:34 10° S 10:49:30 85° E 10:55:23 10° NNE
Cosmos 1300 Rocket 4.2 10:45:39 10° N 10:49:55 54° ENE 10:54:07 10° SSE
SL-16 R/B 4.3 10:53:26 10° NNW 10:53:26 10° NNW 10:53:46 10° NNW
Cosmos 2123 Rocket 3.9 10:49:34 10° SSW 10:55:48 77° W 11:02:01 10° N
PAYLOAD A 4.4 10:51:45 10° N 10:56:50 42° WNW 11:00:42 16° SW
Cosmos 1943 Rocket 2.1 10:52:28 11° NNW 10:57:52 88° ENE 11:03:21 10° SSE
CZ-2C R/B 3.1 10:53:28 10° N 10:57:55 33° WNW 10:58:22 32° WNW
Cosmos 1140 Rocket 3.5 10:55:53 20° NW 10:59:19 56° WSW 11:04:17 10° S
SJ 16-02 3.7 10:56:15 10° N 10:59:37 22° ENE 11:02:57 10° ESE
ARGOS 3.9 10:56:44 10° N 11:01:22 30° WNW 11:02:07 29° W
USA 234 3.6 10:58:08 10° SSE 11:04:22 46° SW 11:08:18 22° WNW
Cosmos 2016 Rocket 4.0 11:02:13 10° N 11:08:37 77° W 11:14:56 10° S
TIMED 4.5 11:06:13 19° NNW 11:09:05 57° WSW 11:13:14 10° S
Iridium 4 Rocket 2.8 11:06:39 10° N 11:10:58 72° W 11:15:05 10° S
Meteor 2-21 Rocket 4.4 11:05:30 10° SSW 11:11:32 61° WNW 11:17:35 10° N
NOSS 2-1 (C) 4.0 11:18:33 24° NW 11:18:33 24° NW 11:21:07 10° NNE
Cosmos 1484 Rocket 3.7 11:16:03 10° NNE 11:19:31 47° E 11:22:55 10° S
Timation 2 Rocket 4.2 11:15:30 10° NW 11:21:55 52° WSW 11:28:01 10° S
NOSS 2-1 (D) 4.2 11:22:22 21° NW 11:22:22 21° NW 11:24:46 10° N
IRS-1D 3.5 11:17:48 10° N 11:22:40 57° WNW 11:27:28 10° SSW
COSMO-SKYMED 1 2.3 11:18:48 10° S 11:22:55 80° WSW 11:27:04 10° NNW
Cosmos 2219 Rocket 3.7 11:23:46 16° NW 11:24:43 17° NW 11:28:18 10° N
SL-16 R/B 4.3 11:19:59 10° SSE 11:24:52 31° ESE 11:29:47 10° NE
SKYMED 2 3.7 11:23:25 10° S 11:27:38 51° W 11:31:53 10° NNW
USA 276 3.0 11:27:18 22° WSW 11:27:57 25° SW 11:30:19 10° SSE
Cosmos 2061 Rocket 3.9 11:23:46 10° N 11:29:59 79° W 11:36:09 10° S
Aureole 3 Rocket 4.3 11:26:20 10° N 11:30:39 55° E 11:36:36 10° SSE
COSMOS 2428 3.4 11:30:08 10° WSW 11:35:10 32° NW 11:40:14 10° N
Lacrosse 5 rocket 3.3 11:36:15 10° NNW 11:37:02 11° N 11:37:49 10° NNE
Cosmos 1954 Rocket 4.4 11:33:15 10° NNW 11:38:26 64° ENE 11:43:32 10° SSE
NOSS 0 Rocket 4.2 11:33:54 10° SW 11:39:47 47° NW 11:45:43 10° NNE
NOSS 3-1 (C) 4.0 11:36:52 15° W 11:40:08 28° NNW 11:45:10 10° NNE
Cosmos 1939 Rocket 4.3 11:39:14 10° NNW 11:41:39 16° WNW 11:43:14 13° W
Cosmos 407 Rocket 3.7 11:37:10 10° NNW 11:42:02 45° WSW 11:46:51 10° S
BlueWalker 3 3.0 11:42:58 15° W 11:45:14 26° SW 11:48:16 10° SSE
Helios 1A Rocket 3.5 11:44:05 10° SSW 11:46:58 25° W 11:49:51 10° NW
IGS 5A 3.7 11:46:12 10° NNE 11:50:13 72° ESE 11:54:13 10° S
Cosmos 304 Rocket 4.2 11:49:08 10° NNW 11:53:53 67° ENE 11:58:37 10° SSE
Cosmos 1980 4.0 11:48:40 10° SW 11:54:04 46° WNW 11:59:31 10° NNE
USA 59 Rocket 1.4 11:53:54 10° NW 11:54:37 11° NW 11:55:20 10° NNW
